Regional Weather Roundup
Issued by NWS Upton, NY

Current Version | Previous Version | Graphics & Text | Print | Product List | Glossary Off
Versions: 1 2 3 4 5 6 7 8 9 10 11 12 13 14 15 16 17 18 19 20 21 22 23 24 25 26 27

000
ASUS41 KOKX 202206
RWROKX

Regional Weather Roundup
National Weather Service New York NY
600 PM EDT SUN MAY 20 2018

Note: "FAIR" indicates few or no clouds below 12,000 feet with no
significant weather and/or obstructions to visibility.

NYZ071-072-176-178-NJZ106-104-202300-
New York City Metro Area

CITY           SKY/WX    TMP DP  RH WIND       PRES   REMARKS
Central Park   PTSUNNY   78  61  55 NW7G17    29.97R
Bronx Bot Gard   N/A     79  61  53 W9        29.97R
Bronx Lehman C   N/A     77  63  61 N9          N/A
LaGuardia Arpt PTSUNNY   77  60  55 NW13      29.93R
Queens College   N/A     79  63  57 NW12        N/A
Kennedy Intl   PTSUNNY   80  63  55 NW15      29.94R
Breezy Point     N/A     73 N/A N/A W7          N/A
Brooklyn Coll    N/A     79  63  57 NW8         N/A
Staten Island    N/A     79  63  57 NW12        N/A
Newark/Liberty PTSUNNY   81  62  52 W15G22    29.94R
Teterboro      PTSUNNY   79  63  57 NW13G20   29.94R
$$

NYZ177-179-078>081-202300-
Long Island New York

CITY           SKY/WX    TMP DP  RH WIND       PRES   REMARKS
Jones Beach      N/A     68 N/A N/A W8          N/A
Wantagh          N/A     81  63  54 NW10        N/A
Hempstead        N/A     79  64  61 NW9       29.97R
Matinecock Pt    N/A     73 N/A N/A NW18        N/A
Farmingdale    FAIR      78  64  61 N10       29.94R
MacArthur/ISP  CLOUDY    77  64  64 NW13      29.93R
Stony Brook      N/A     73  63  68 NW7         N/A
Shirley        CLOUDY    73  64  73 SW7       29.93R
Mt Sinai Harb    N/A     75 N/A N/A W5G10       N/A
Westhampton    FAIR      67  58  72 S6        29.93S
East Hampton   FAIR      66  60  79 SW3       29.91S
Southold         N/A     75  64  69 W6          N/A
Montauk          N/A     65  59  81 VRB3      29.92R
$$

NYZ052-065-067-202300-
Hudson Valley

CITY           SKY/WX    TMP DP  RH WIND       PRES   REMARKS
White Plains   FAIR      73  62  68 NW17      29.95R
Larchmont Harb   N/A     75 N/A N/A NW12        N/A
Croton On Huds   N/A     73 N/A N/A N9          N/A
Somers           N/A    N/A N/A N/A W6          N/A
Brewster         N/A     72  64  78 NW3         N/A
Newburgh       PTSUNNY   75  61  60 NW12      29.98R
Montgomery     FAIR      75  58  55 NW12      29.96R
Otisville        N/A     70  57  64 W7          N/A
Warwick          N/A    N/A N/A N/A W8          N/A
Suffern          N/A     72  61  68 W12         N/A
Poughkeepsie   CLOUDY    76  59  55 N9        29.94R
Albany         PTSUNNY   68  55  63 W20G29    29.98R
$$

NJZ001-105-106-008-010-013-015-019>022-104-202300-
New Jersey

CITY           SKY/WX    TMP DP  RH WIND       PRES   REMARKS
Newark/Liberty PTSUNNY   81  62  52 W15G22    29.94R
Teterboro      PTSUNNY   79  63  57 NW13G20   29.94R
Caldwell       FAIR      75  61  61 N13G24    29.97R
Somerville     CLOUDY    79  64  60 NW7       29.95R
Linden         CLOUDY    80  61  51 N13G18    29.94
Perth Amboy      N/A     79 N/A N/A W15         N/A
Sussex         PTSUNNY   73  61  65 N9        30.00R
Andover          N/A     72  61  68 VRB5      30.01R
Trenton        FAIR      81  64  56 NW9       29.97R
Millville      HVY RAIN  78  68  71 NW9       29.98R
Atlantic City  PTSUNNY   81  69  67 NW7       29.98R
Wrightstown    FAIR      81  64  55 W9        29.95R
Toms River     FAIR      82  67  60 NW10      29.97S
Belmar         CLOUDY    81  64  56 W9        29.98R
$$

PAZ047>061-062-071-202300-
Eastern Pennsylvania

CITY           SKY/WX    TMP DP  RH WIND       PRES   REMARKS
Philadelphia   PTSUNNY   82  63  52 NW14      29.98R
Allentown      CLOUDY    76  62  62 N12       30.00R
Scranton       CLOUDY    68  58  70 N14       30.05S
$$

CTZ002-004>006-009-010-012-RIZ004-006-007-MAZ004-011-015-202300-
Southern New England

 In CT

CITY           SKY/WX    TMP DP  RH WIND       PRES   REMARKS
Bradley Intl   PTSUNNY   76  62  62 NW9       29.92R
Hartford       PTSUNNY   74  63  68 NW10      29.91S
Danbury        CLOUDY    74  63  68 W8        29.96R
Wtrbury/Oxford PTSUNNY   73  64  73 N15G22    29.95R
Norwalk Harbor   N/A     75 N/A N/A W16         N/A
Bridgeport     PTSUNNY   80  62  54 NW13      29.91R
Meriden        PTSUNNY   74  62  66 NW14      29.92R
New Haven      PTSUNNY   76  62  62 VRB7      29.91R
Chester        MOCLDY    75  63  64 N12G22    29.93R
Groton         FAIR      67  61  81 SW8       29.89R
Willimantic    PTSUNNY   70  65  84 NW6       29.91R

 In RI

CITY           SKY/WX    TMP DP  RH WIND       PRES   REMARKS
Providence     CLOUDY    75  70  84 W8        29.89R
Block Island   PTSUNNY   60  57  89 SW22      29.91R
Westerly       FAIR      69  63  81 SW7       29.90R

In MA

CITY           SKY/WX    TMP DP  RH WIND       PRES   REMARKS
Boston         CLOUDY    77  64  64 NW10      29.86R
Worcester      PTSUNNY   71  61  70 NW23G30   29.92R
Westfield      FAIR      75  60  59 NW18G24   29.91R
Provincetown   LGT RAIN  59  58  96 S3        29.88F FOG
Nantucket      FOG       56  56 100 SW15      29.91R VSB 1
$$

ANZ330-335-338-340-345-350-353-355-202300-
Coastal Marine Observations


STATION/POSITION TIME  SKY/WX   TEMP    WIND        PRES    VSBY  WAVE
                                AIR SEA DIR/SP/G                  HT/PER
                 (UTC)          (F)     (DEG/KT/KT) (MB)    (MI)  (FT/S)
NY Harb Entrance 2150            60 54  190/  8/ 10 1014.0          3/ 7
20 S Fire Island 2150            58 52  230/ 12/ 14 1014.0          5/ 8
23 SSW Montauk P 2150            56 51  240/ 14/ 17 1013.5          6/ 6
15 E Barnegat Li 2130               56                N/A           5/ 8
Hudson Canyon    2150            56 51  230/ 14/ 17 1014.9          6/ 7
Kings Point      2148               55   50/  9/ 11 1014.7
Execution Rocks  NOT AVBL
Western LI Sound NOT AVBL
Central LI Sound 2115            61     250/ 10/ 12   N/A           1
Robbins Reef     2148            80     310/ 15/ 18 1014.1
$$


>>>>>>>>>>>>>>>>>>>>>>>>>>>> KEY <<<<<<<<<<<<<<<<<<<<<<<<<<<
>                                                          <
>     SKY/WX - Sky Condition/Present Weather               <
>     TMP    - Temperature in Fahrenheit                   <
>     DP     - Dew Point in Fahrenheit                     <
>     RH     - Relative Humidity in Percent                <
>     WIND   - Direction (from) and Speed in MPH           <
>     PRES   - Mean Sea Level Pressure (inches of Hg)      <
>     WCI    - Wind Chill Index                            <
>     VSB    - Visibility in Miles                         <
>     HX     - Heat Index                                  <
>     TC     - Temperature in Celsius                      <
>     VRB    - Varibale Wind Direction                     <
>                                                          <
>>>>>>>>>>>>>>>>>>>>>>>>>>>> KEY <<<<<<<<<<<<<<<<<<<<<<<<<<<




USA.gov is the U.S. government's official web portal to all federal, state and local government web resources and services.